Temp
76 78 77 77 78 77 77 76 77 77 77 79 80 80 81 80 81 79 76 81 81 82 82 83 82 82 82 82 81 81 81 81 80 80 80 81 80 80 80 80 80 80 79
77 76 76 76 76 76 76 75 75 75 75 76 78 80 80 83 79 80 78 77 80 81 82 82 82 82 82 82 82 82 81 81 80 80 80 80 80 79 80 80 80 80 79
78 75 75 75 75 75 76 76 75 75 75 77 76 78 78 82 80 79 79 78 81 82 82 81 82 82 82 82 82 82 81 80 80 80 80 79 79 79 79 79 79 79 79
78 75 75 75 76 76 75 73 73 72 72 72 73 74 75 77 79 79 83 80 79 82 82 82 81 81 82 82 82 82 81 80 80 80 79 79 79 79 79 79 79 79 78
79 75 75 75 76 73 73 72 73 71 71 71 72 74 73 73 74 79 81 79 81 80 79 81 81 80 82 83 83 82 81 80 80 80 80 79 79 79 79 78 78 78 78
79 75 73 73 73 72 71 71 71 71 71 70 75 75 74 73 75 72 74 81 82 85 82 80 79 80 81 83 83 82 82 81 80 80 79 79 79 78 78 78 77 78 77
78 75 73 74 72 72 72 72 72 71 69 70 67 67 68 72 73 75 75 73 75 81 78 79 79 79 80 81 80 81 82 81 81 80 79 79 78 78 77 77 77 77 77
78 78 74 73 72 71 70 70 69 67 68 69 65 64 61 65 69 73 74 75 73 76 75 84 80 79 79 79 80 81 81 81 82 81 80 79 78 77 77 77 76 77 77
77 75 75 73 72 70 69 69 69 68 65 67 68 64 61 59 63 69 70 71 74 70 71 74 76 77 77 77 79 80 80 79 80 81 81 79 78 77 77 77 77 76 76
75 76 75 73 71 69 69 69 71 68 67 64 66 67 65 64 61 60 66 71 72 75 72 72 71 71 71 72 78 79 80 79 79 80 81 80 79 78 78 78 77 77 76
74 76 74 72 70 69 68 69 68 68 67 65 64 64 64 64 64 62 62 65 71 68 70 70 70 69 69 71 71 74 77 79 78 79 79 80 80 80 79 79 79 78 78
69 72 73 71 70 69 69 68 68 68 66 66 65 65 63 62 62 61 60 61 62 66 67 69 69 68 71 70 74 74 73 72 75 77 77 78 79 80 80 81 80 80 79
68 69 71 70 69 69 70 68 68 67 67 66 65 64 64 63 64 63 61 61 61 65 63 67 69 70 71 69 69 72 71 72 72 73 74 75 77 78 79 80 80 80 81
68 70 70 71 71 71 70 69 68 67 67 66 66 65 64 63 63 63 61 60 60 60 66 63 72 68 69 69 70 73 71 70 70 70 71 73 74 75 77 78 78 79 79
72 71 72 71 70 70 69 68 66 66 66 66 65 65 63 63 63 62 61 60 58 54 56 62 62 71 70 70 71 72 71 70 70 70 69 70 71 73 74 75 75 75 75
70 70 70 70 70 69 69 68 66 67 66 65 65 64 64 63 61 61 60 59 58 57 55 61 63 68 71 73 73 72 73 72 70 71 68 68 69 71 72 72 73 73 73
70 70 70 69 69 68 68 67 67 67 66 64 65 64 64 63 60 60 59 57 56 55 55 60 62 67 68 69 72 72 71 73 71 70 69 68 68 69 70 71 71 71 72
70 70 69 68 68 69 68 67 67 68 66 64 64 63 64 66 61 60 58 57 55 56 56 54 59 62 62 66 70 69 71 76 72 73 70 66 66 67 68 68 68 69 69
69 69 69 68 68 68 68 68 66 66 65 65 64 63 63 62 60 59 58 57 56 57 56 55 56 61 61 63 64 68 68 69 72 74 67 67 66 66 66 65 66 65 65
69 68 68 68 68 68 68 68 67 65 66 66 65 64 64 62 61 59 58 57 56 55 54 54 55 57 59 63 62 62 64 67 69 76 71 71 71 69 67 66 65 65 63
69 69 68 68 68 69 73 68 69 69 67 64 64 64 64 65 67 63 59 59 56 57 54 54 55 57 58 59 57 60 61 66 67 69 68 68 69 69 70 66 68 67 64
69 68 68 68 68 72 69 70 67 64 64 63 62 62 62 66 65 66 66 66 63 57 55 54 56 55 57 57 59 58 59 62 62 70 69 70 70 69 70 69 69 67 63
68 68 67 67 67 66 66 66 67 63 62 61 61 61 61 64 64 61 63 64 64 63 63 59 56 57 57 59 59 58 59 60 64 71 68 67 69 70 76 76 67 65 63
67 66 66 67 66 67 64 63 63 61 61 62 62 61 61 61 61 60 58 57 58 59 60 62 61 61 61 62 60 60 60 60 64 66 68 65 67 71 71 72 68 66 63
66 66 67 66 65 64 60 59 60 60 59 59 61 62 62 60 59 58 55 54 56 58 63 62 61 61 61 61 60 58 58 58 59 63 67 66 68 67 68 70 70 64 63
67 65 65 65 64 61 60 59 59 58 56 58 59 61 61 57 55 54 54 54 56 55 57 59 60 60 61 60 62 60 59 59 61 61 69 66 66 65 63 67 68 67 64
MSLP
1018.37 1018.17 1018.31 1018.21 1018.09 1018.17 1018.18 1018.05 1018.03 1018.08 1017.99 1017.85 1017.59 1017.53 1017.44 1017.39 1017.32 1017.76 1018.14 1018.10 1018.18 1018.27 1018.36 1018.67 1019.02 1019.35 1019.68 1019.85 1020.01 1020.25 1020.45 1020.65 1020.80 1020.88 1021.08 1021.32 1021.46 1021.66 1021.83 1021.89 1021.93 1022.02 1022.09
1017.95 1018.01 1018.14 1018.21 1018.28 1018.24 1018.18 1018.15 1018.10 1018.02 1017.98 1017.92 1017.69 1017.43 1017.31 1017.13 1017.13 1017.14 1017.41 1017.64 1017.69 1017.82 1017.89 1018.27 1018.67 1018.91 1019.26 1019.45 1019.69 1019.82 1019.97 1020.26 1020.44 1020.59 1020.76 1021.00 1021.15 1021.32 1021.51 1021.62 1021.69 1021.79 1021.86
1017.41 1017.72 1017.90 1018.08 1018.17 1018.05 1017.99 1018.03 1018.05 1018.00 1018.03 1017.68 1017.77 1017.44 1017.22 1016.87 1016.87 1016.93 1016.88 1017.12 1017.27 1017.35 1017.41 1017.78 1018.03 1018.36 1018.58 1018.80 1019.16 1019.48 1019.60 1019.71 1019.97 1020.19 1020.41 1020.64 1020.81 1020.95 1021.08 1021.23 1021.35 1021.47 1021.55
1017.10 1017.43 1017.76 1017.87 1017.83 1017.80 1017.84 1017.93 1018.22 1018.19 1018.09 1017.98 1017.83 1017.55 1017.29 1016.90 1016.78 1016.64 1016.39 1016.70 1016.82 1016.81 1017.11 1017.24 1017.57 1017.83 1018.06 1018.18 1018.30 1018.81 1019.18 1019.31 1019.46 1019.73 1019.98 1020.13 1020.31 1020.51 1020.66 1020.79 1020.91 1021.01 1021.12
1016.88 1017.33 1017.54 1017.63 1017.70 1017.83 1017.89 1018.04 1017.98 1018.13 1018.15 1018.04 1017.90 1017.59 1017.26 1017.14 1016.93 1016.43 1016.13 1016.02 1016.07 1016.17 1016.40 1016.65 1016.98 1017.08 1017.12 1017.47 1017.79 1018.00 1018.36 1018.68 1018.98 1019.20 1019.50 1019.64 1019.79 1019.95 1020.10 1020.27 1020.45 1020.59 1020.67
1016.72 1017.14 1017.48 1017.55 1017.61 1017.94 1017.97 1017.98 1018.08 1017.98 1018.00 1017.95 1017.73 1017.48 1017.27 1017.01 1016.68 1016.49 1016.23 1015.77 1015.80 1015.46 1015.61 1015.79 1016.06 1016.37 1016.49 1016.65 1016.99 1017.39 1017.61 1017.85 1018.28 1018.62 1018.84 1019.03 1019.21 1019.38 1019.53 1019.64 1019.86 1020.11 1020.25
1016.58 1016.96 1017.26 1017.39 1017.57 1017.92 1017.96 1017.95 1017.83 1017.89 1018.10 1017.94 1017.93 1017.54 1017.16 1016.71 1016.32 1015.81 1015.36 1015.41 1015.32 1014.94 1015.16 1015.29 1015.41 1015.61 1015.79 1015.95 1016.12 1016.49 1016.85 1017.14 1017.37 1017.87 1018.20 1018.35 1018.55 1018.73 1018.95 1019.13 1019.28 1019.46 1019.72
1016.54 1016.83 1017.06 1017.52 1017.47 1017.82 1017.91 1017.99 1017.97 1018.20 1018.13 1017.99 1018.25 1018.12 1017.53 1016.72 1015.96 1015.63 1015.38 1015.23 1015.09 1014.76 1015.00 1014.57 1014.53 1014.76 1014.92 1015.18 1015.47 1015.75 1016.06 1016.48 1016.73 1017.00 1017.33 1017.66 1017.87 1018.09 1018.31 1018.45 1018.66 1018.87 1019.09
1016.57 1016.78 1016.97 1017.19 1017.56 1017.84 1018.03 1018.15 1018.12 1018.32 1018.44 1018.17 1018.31 1018.54 1018.20 1017.74 1017.05 1016.00 1015.59 1015.21 1015.05 1015.11 1015.01 1014.72 1014.58 1014.59 1014.48 1014.40 1014.59 1014.79 1015.12 1015.63 1016.07 1016.35 1016.50 1016.80 1017.08 1017.32 1017.60 1017.77 1017.92 1018.12 1018.39
1016.60 1016.66 1016.81 1017.18 1017.54 1017.71 1018.02 1018.13 1018.17 1018.26 1018.42 1018.55 1018.31 1018.17 1018.42 1018.33 1017.87 1016.85 1015.93 1015.68 1015.36 1015.21 1015.10 1014.56 1014.67 1015.71 1015.71 1016.41 1014.65 1013.92 1014.16 1014.80 1015.19 1015.61 1015.71 1015.86 1016.17 1016.49 1016.75 1017.02 1017.21 1017.42 1017.65
1016.34 1016.48 1016.89 1017.09 1017.51 1017.60 1017.82 1017.92 1017.99 1018.09 1018.20 1018.39 1018.37 1018.30 1018.22 1018.16 1017.90 1017.77 1017.03 1016.22 1015.77 1015.54 1015.22 1014.63 1014.09 1014.99 1014.50 1015.31 1015.13 1014.63 1014.13 1013.46 1014.20 1014.59 1014.93 1014.99 1015.26 1015.62 1015.90 1016.14 1016.45 1016.69 1016.91
1016.77 1016.67 1016.90 1017.00 1017.22 1017.38 1017.60 1017.66 1017.83 1017.93 1017.97 1018.02 1018.06 1018.13 1018.19 1018.31 1018.13 1017.96 1017.63 1017.09 1016.52 1015.65 1015.31 1014.82 1014.17 1013.64 1013.00 1013.66 1013.95 1013.66 1014.40 1014.71 1014.92 1013.75 1013.84 1014.10 1014.35 1014.67 1015.05 1015.29 1015.54 1015.84 1016.11
1016.94 1016.90 1016.78 1017.12 1017.36 1017.20 1017.25 1017.31 1017.56 1017.65 1017.66 1017.82 1017.90 1018.01 1017.91 1018.00 1017.82 1017.61 1017.57 1017.21 1016.69 1015.91 1015.30 1014.74 1014.21 1013.44 1013.13 1013.14 1013.07 1012.65 1012.66 1013.16 1013.75 1014.54 1013.08 1013.29 1013.52 1013.75 1014.10 1014.46 1014.75 1014.97 1015.21
1016.69 1016.59 1016.74 1016.80 1016.90 1016.96 1017.04 1017.09 1017.30 1017.39 1017.47 1017.59 1017.67 1017.73 1017.74 1017.66 1017.50 1017.41 1017.43 1017.34 1016.78 1016.14 1015.24 1014.75 1014.06 1013.66 1013.07 1012.75 1012.64 1012.04 1012.33 1012.82 1013.13 1013.94 1013.19 1012.35 1012.36 1012.64 1013.14 1013.55 1013.92 1014.19 1014.38
1016.44 1016.48 1016.37 1016.69 1016.61 1016.66 1016.74 1017.01 1017.17 1017.25 1017.31 1017.33 1017.43 1017.45 1017.48 1017.47 1017.30 1017.31 1017.38 1017.48 1017.55 1017.02 1015.78 1014.55 1014.28 1013.23 1012.53 1011.94 1011.66 1011.28 1011.48 1011.37 1012.10 1013.07 1012.58 1011.96 1011.46 1011.48 1011.96 1012.48 1012.92 1013.29 1013.55
1016.20 1016.27 1016.31 1016.43 1016.48 1016.48 1016.60 1016.73 1016.74 1016.79 1016.92 1017.04 1017.03 1017.12 1017.16 1017.11 1017.10 1017.18 1017.31 1017.39 1017.62 1017.64 1016.67 1015.42 1014.23 1013.16 1011.94 1011.22 1010.71 1010.68 1010.44 1010.40 1010.81 1010.81 1010.81 1010.70 1010.85 1010.82 1010.94 1011.47 1011.87 1012.26 1012.62
1015.98 1016.06 1016.10 1016.20 1016.25 1016.35 1016.43 1016.43 1016.38 1016.39 1016.55 1016.64 1016.63 1016.75 1016.78 1016.70 1016.80 1016.94 1017.09 1017.16 1017.26 1017.21 1016.59 1015.21 1014.40 1012.94 1011.40 1010.58 1009.95 1009.47 1009.27 1009.17 1009.40 1009.28 1009.16 1009.50 1009.66 1010.06 1010.10 1010.36 1010.78 1011.21 1011.62
1015.63 1015.71 1015.76 1015.91 1016.03 1016.02 1015.95 1015.91 1015.88 1015.85 1016.05 1016.25 1016.24 1016.31 1016.32 1016.35 1016.48 1016.45 1016.63 1016.75 1016.74 1016.60 1016.36 1015.32 1014.30 1012.95 1011.88 1010.27 1009.50 1008.95 1008.54 1007.82 1007.89 1008.02 1008.01 1008.52 1009.10 1009.60 1009.85 1009.46 1009.70 1010.04 1010.55
1015.22 1015.30 1015.44 1015.52 1015.51 1015.48 1015.46 1015.32 1015.37 1015.31 1015.45 1015.50 1015.55 1015.75 1015.80 1015.90 1016.07 1016.03 1016.06 1016.10 1015.95 1015.83 1015.53 1014.98 1013.87 1012.99 1011.83 1010.72 1009.16 1008.48 1007.86 1007.46 1007.21 1007.05 1007.04 1007.63 1007.63 1008.66 1008.87 1009.14 1008.99 1009.03 1009.43
1014.71 1014.84 1014.83 1014.78 1014.88 1014.87 1014.84 1014.74 1014.68 1014.66 1014.74 1014.80 1014.77 1014.89 1014.96 1015.11 1015.28 1015.36 1015.42 1015.26 1015.20 1015.21 1014.93 1014.37 1013.57 1012.61 1011.75 1010.61 1009.57 1008.69 1007.66 1007.05 1006.58 1006.30 1006.71 1006.76 1007.08 1006.97 1007.29 1007.56 1007.73 1008.23 1008.46
1014.02 1014.03 1014.18 1014.33 1014.37 1014.39 1014.34 1014.33 1014.30 1014.28 1014.33 1014.39 1014.31 1014.30 1014.26 1014.23 1014.32 1014.37 1014.61 1014.44 1014.49 1014.29 1014.17 1013.68 1012.93 1012.15 1011.10 1010.25 1009.56 1008.72 1008.02 1006.74 1005.83 1005.45 1005.75 1006.07 1006.08 1005.95 1005.69 1006.23 1006.53 1007.00 1007.60
1013.53 1013.68 1013.78 1013.96 1014.04 1013.95 1013.87 1013.93 1014.10 1014.28 1014.19 1014.10 1014.22 1013.89 1013.81 1013.76 1013.69 1013.57 1013.37 1013.37 1013.21 1013.36 1013.17 1012.88 1012.00 1011.02 1009.90 1009.30 1008.82 1008.30 1007.64 1006.71 1005.32 1004.30 1004.62 1004.49 1004.74 1004.74 1005.08 1005.02 1005.10 1005.72 1006.42
1013.10 1013.27 1013.41 1013.50 1013.60 1013.61 1013.54 1013.46 1013.54 1013.84 1014.04 1014.00 1013.84 1013.64 1013.27 1013.19 1013.10 1012.94 1012.75 1012.46 1012.33 1012.20 1011.90 1011.57 1010.95 1010.01 1008.83 1008.19 1007.75 1006.96 1006.64 1006.10 1004.66 1003.62 1003.69 1003.73 1003.92 1003.90 1003.75 1003.74 1004.29 1004.93 1005.47
1012.73 1012.89 1012.89 1012.83 1012.99 1012.95 1013.08 1013.09 1013.33 1013.57 1013.49 1013.14 1013.06 1013.04 1012.84 1012.70 1012.48 1012.58 1012.51 1012.45 1012.13 1011.72 1011.13 1010.61 1009.71 1008.54 1007.50 1006.51 1005.97 1005.45 1005.27 1005.01 1004.21 1003.31 1002.99 1003.32 1003.06 1003.06 1003.18 1003.31 1003.54 1004.09 1004.72
1012.18 1012.07 1012.24 1012.42 1012.51 1012.57 1012.67 1012.87 1013.14 1013.14 1013.21 1013.25 1012.99 1012.64 1012.38 1012.27 1012.49 1012.37 1012.47 1012.27 1011.77 1011.05 1010.08 1009.24 1008.21 1007.01 1005.70 1004.44 1003.55 1003.55 1003.21 1003.64 1002.94 1002.13 1002.03 1002.37 1002.47 1002.62 1002.79 1002.93 1003.16 1003.72 1004.13
1011.72 1011.81 1012.11 1012.13 1011.94 1012.18 1012.29 1012.71 1012.80 1012.88 1013.15 1013.12 1012.53 1012.25 1012.06 1012.11 1012.24 1012.29 1012.20 1012.03 1011.55 1010.70 1009.75 1008.40 1006.97 1005.35 1003.67 1001.92 1000.09 999.86 1001.24 1001.38 1001.32 1001.24 1000.56 1001.38 1001.78 1002.22 1002.88 1002.74 1002.95 1003.32 1003.64
Wind_Speed
4 3 2 1 3 1 1 2 3 3 4 5 6 4 4 5 1 4 3 17 17 17 18 18 18 18 18 17 17 17 16 15 14 14 14 13 12 11 11 11 9 8 8
4 3 2 1 3 3 2 1 3 4 4 4 6 6 6 5 5 4 5 7 15 15 17 18 18 19 19 18 18 18 17 16 15 15 14 13 12 12 12 11 11 10 9
6 6 4 2 3 3 3 3 4 4 4 5 6 5 5 5 5 6 4 6 9 17 19 19 20 20 20 21 20 18 18 17 17 17 16 15 14 12 12 12 12 11 11
4 4 3 2 3 3 2 2 3 4 4 3 3 5 5 4 6 7 5 6 7 8 14 20 20 21 21 23 20 19 20 19 18 17 17 17 15 14 14 13 13 13 12
6 4 1 2 2 3 3 3 3 1 3 4 4 5 4 4 5 6 7 8 9 10 7 16 20 21 22 24 21 21 21 20 20 19 19 18 18 17 16 15 15 14 13
4 3 0 3 3 3 4 3 3 3 3 4 4 6 6 5 6 5 6 6 9 11 10 10 11 12 21 22 22 22 22 21 21 21 21 19 18 18 18 17 16 15 14
3 2 1 1 2 3 4 5 3 3 2 2 3 3 4 6 7 6 5 4 7 7 8 8 7 7 10 24 25 24 24 24 23 22 22 21 20 19 18 17 17 16 15
3 3 3 1 2 2 4 4 4 2 2 2 2 2 4 5 4 5 4 5 7 5 8 10 10 11 10 9 15 23 24 24 24 24 24 22 21 20 20 19 17 16 16
5 5 3 2 3 3 4 4 4 5 3 2 2 2 4 3 5 3 5 5 6 3 5 4 4 5 7 10 13 18 25 25 26 26 25 24 23 22 21 20 19 18 17
2 1 0 4 4 2 3 3 2 1 2 4 3 1 2 3 3 6 3 6 6 6 7 5 1 6 8 10 12 19 21 25 26 26 26 25 24 23 23 22 21 19 18
3 3 5 6 4 3 3 3 4 3 1 1 2 2 2 3 2 3 6 7 7 4 4 5 3 7 13 10 9 9 15 23 26 26 27 27 26 25 25 23 22 21 20
2 6 5 5 2 2 2 2 2 3 2 2 1 2 1 1 3 2 3 5 8 5 4 4 6 6 9 8 10 10 18 16 20 25 27 27 26 26 26 26 24 23 22
2 3 4 4 1 2 3 2 2 3 3 0 1 1 1 2 2 3 2 4 5 6 4 4 6 7 8 5 6 9 12 17 19 30 26 26 26 26 26 26 25 24 23
2 3 3 4 3 3 3 4 2 2 3 1 1 1 1 2 2 2 2 4 8 5 8 7 7 6 7 8 10 19 7 14 17 25 22 25 26 26 25 25 24 23 23
2 2 3 1 2 3 3 2 2 2 0 1 1 1 1 2 3 3 2 2 3 6 9 6 8 10 9 8 13 12 11 17 18 32 23 23 24 25 25 25 23 22 21
2 2 2 2 3 4 4 3 3 3 2 2 2 2 2 1 2 2 2 2 1 3 6 9 12 16 13 11 12 15 15 22 23 30 19 18 21 24 24 23 23 22 21
4 4 4 4 5 5 5 4 4 5 5 5 3 4 4 3 1 1 1 1 2 2 7 10 11 14 15 13 14 11 12 12 10 15 13 17 21 25 24 23 23 22 22
4 5 4 4 4 5 6 5 6 4 5 5 6 5 6 4 3 3 2 4 4 4 6 13 12 11 15 13 15 12 10 11 9 15 15 9 11 17 21 22 22 22 21
6 5 4 5 6 6 7 7 6 7 5 6 6 6 6 6 6 4 5 5 4 4 6 8 11 10 10 12 12 13 11 11 10 18 14 14 17 21 20 19 20 21 20
6 6 7 7 7 7 7 7 7 6 6 6 7 6 7 7 7 7 6 7 5 5 6 8 9 11 10 13 9 10 11 7 10 11 15 16 19 17 21 20 21 20 19
7 7 6 5 6 5 5 4 2 4 5 7 7 7 7 8 10 9 5 8 7 8 6 8 10 11 11 12 11 10 12 11 10 9 8 8 9 7 7 14 18 21 19
7 6 5 5 6 4 5 8 4 5 5 6 6 6 6 9 8 13 14 19 15 9 10 7 12 13 17 13 11 11 11 12 9 7 10 9 6 8 9 8 16 17 19
6 6 4 4 6 6 9 7 5 2 5 5 6 6 6 5 8 7 10 15 14 16 19 11 15 16 18 15 15 15 14 12 12 9 8 11 6 10 9 8 15 19 18
6 5 6 6 5 5 6 5 2 4 5 7 6 7 6 7 7 5 6 6 7 8 11 11 14 18 18 19 18 16 16 14 13 10 7 10 6 10 6 7 13 18 19
5 6 5 6 5 5 3 5 5 5 5 5 5 7 6 5 3 6 4 6 8 10 11 21 26 29 31 31 28 14 13 13 11 9 8 9 7 6 6 7 4 14 17
7 3 4 4 4 5 5 9 6 1 5 4 5 6 6 6 4 1 2 5 8 10 14 17 18 22 26 19 29 18 15 11 11 6 8 9 6 5 1 3 5 5 4
Wind_Direction
190 201 206 296 297 301 343 1 1 336 342 324 313 299 271 258 227 168 182 193 192 192 188 190 195 197 205 205 203 207 209 206 204 202 205 211 210 213 220 228 225 233 240
199 169 169 274 340 332 344 333 290 299 308 296 298 296 284 248 221 196 188 206 197 200 192 195 198 203 207 210 214 213 211 212 211 211 212 216 214 218 224 223 231 238 244
185 161 176 208 257 275 313 334 321 311 295 287 284 291 298 255 237 255 180 191 204 209 202 201 199 203 208 211 214 219 218 217 211 214 216 217 219 218 219 223 232 239 246
193 161 167 221 252 265 263 288 286 300 304 312 309 305 293 278 244 237 238 189 197 203 216 209 209 203 209 212 212 216 220 220 218 215 219 220 220 222 224 227 232 236 241
130 133 192 265 300 300 282 274 282 238 298 294 298 294 298 311 303 287 274 234 199 197 198 212 215 214 209 214 219 215 218 224 219 219 219 223 222 222 224 227 232 235 238
143 150 344 297 294 291 295 296 277 288 244 263 281 286 287 282 277 260 268 253 239 220 206 205 208 217 216 213 217 219 219 219 220 220 220 221 220 222 225 227 229 232 235
51 112 223 267 286 264 273 272 252 252 317 331 321 303 280 273 267 257 244 241 240 238 224 196 205 206 213 214 217 216 220 220 219 220 223 222 221 221 223 227 228 228 230
195 212 168 170 34 0 344 357 358 5 299 24 307 299 321 326 292 278 267 261 245 247 250 241 202 201 206 205 216 219 219 223 223 222 220 223 223 220 221 223 224 227 228
84 80 67 59 28 42 3 342 12 15 344 330 347 193 320 298 336 292 311 301 301 286 266 256 279 272 218 195 208 218 216 219 224 226 223 222 222 222 221 225 225 224 224
148 161 204 74 79 59 22 10 1 352 32 306 327 26 270 252 291 320 335 330 317 317 293 298 304 329 327 303 259 209 213 217 223 227 228 225 222 222 223 224 227 227 225
260 217 119 99 70 40 1 24 354 335 283 217 235 313 319 315 280 299 304 323 316 318 312 271 204 202 243 250 268 304 247 205 216 222 228 228 226 222 224 225 227 228 229
34 103 103 92 87 8 336 308 312 316 297 285 265 276 205 220 289 281 282 308 300 305 310 286 248 241 256 239 231 240 284 303 284 223 222 226 229 227 225 227 227 229 230
96 138 119 115 142 250 274 288 303 312 305 122 316 284 295 269 231 229 238 279 290 307 287 276 262 254 249 236 231 225 244 295 290 270 219 218 221 226 227 227 229 229 231
174 174 151 158 207 255 265 254 253 288 285 178 302 50 303 292 328 337 265 318 324 308 308 289 293 268 248 236 230 234 201 237 271 273 240 217 214 217 224 226 226 229 231
157 131 149 167 280 303 297 262 255 277 110 123 135 337 306 310 356 17 21 2 343 321 316 323 314 302 277 250 222 236 207 202 229 257 234 226 218 213 216 219 220 222 226
213 233 227 238 276 295 301 278 264 260 276 262 212 283 272 197 60 12 354 11 349 297 294 319 307 304 280 274 245 225 233 225 212 239 228 220 223 222 214 215 215 217 221
215 218 221 237 251 269 278 273 243 243 255 246 235 241 250 187 195 230 269 266 265 248 295 308 301 307 300 277 273 249 232 237 229 235 224 220 222 224 218 212 214 216 220
223 223 233 249 262 269 269 258 244 239 229 248 254 236 243 203 217 226 241 266 252 250 281 303 305 306 303 302 284 266 251 250 240 229 223 201 225 237 234 214 212 213 217
217 235 236 241 248 253 257 258 237 236 237 246 251 227 227 208 227 223 233 249 242 257 263 283 301 299 296 299 304 278 256 247 244 233 189 182 240 234 232 229 219 212 212
219 233 228 232 241 248 252 257 257 240 229 245 244 234 226 221 224 227 232 247 246 252 265 280 297 299 297 297 295 294 276 249 242 233 212 209 215 222 221 223 217 215 212
220 225 234 248 261 256 254 215 245 236 239 248 250 246 238 241 236 216 224 259 236 257 267 282 299 300 299 302 293 297 293 266 245 226 210 217 233 222 232 229 225 216 214
227 225 233 235 263 258 222 240 219 259 258 260 271 274 258 265 274 264 262 258 246 255 264 271 292 290 290 284 278 276 275 278 254 224 219 227 193 214 215 204 212 209 205
204 225 238 233 263 261 263 267 265 286 286 279 265 269 276 255 263 267 272 269 269 265 261 277 285 287 286 281 278 270 257 260 255 251 209 231 207 231 226 219 202 204 202
209 214 231 240 248 256 281 253 332 277 256 248 250 265 256 266 269 300 311 309 281 272 276 277 278 280 277 280 266 255 251 253 266 251 210 238 208 222 210 216 200 203 208
217 212 222 249 245 269 112 154 209 257 286 308 294 289 270 280 14 27 338 297 292 288 298 291 288 289 284 279 265 244 227 230 238 229 213 218 217 208 197 218 202 207 210
214 172 266 253 256 166 173 210 204 269 297 296 295 306 328 84 74 1 316 289 303 302 306 311 311 309 308 285 294 216 211 225 215 226 204 196 203 158 226 219 194 183 164